SCP
0 0 0 0 0 0 0 0 0 0 0 0 0 0 0 0 0 0 0 0 0 0 0 0 0 0 0 0 0 0 0 0 0 0 0 0 0 0 0 0 0 0 0
0 0 0 0 0 0 0 0 0 0 0 0 0 0 0 0 0 0 0 0 0 0 0 0 0 0 0 0 0 0 0 0 0 0 0 0 0 0 0 0 0 0 0
0 0 0 0 0 0 0 0 0 0 0 0 0 0 0 0 0 0 0 0 0 0 0 0 0 0 0 0 0 0 0 0 0 0 0 0 0 0 0 0 0 0 0
0 0 0 0 0 0 0 0 0 0 0 0 0 0 0 0 0 0 0 0 0 0 0 0 0 0 0 0 0 0 0 0 0 0 0 0 0 0 0 0 0 0 0
0 0 0 0 0 0 0 0 0 0 0 0 0 0 0 0 0 0 0 0 0 0 0 0 0 0 0 0 0 0 0 0 0 0 0 0 0 0 0 0 0 0 0
0 0 0 0 0 0 0 0 0 0 0 0 0 0 0 0 0 0 0 0 0 0 0 0 0 0 0 0 0 0 0 0 0 0 0 0 0 0 0 0 0 0 0
0 0 0 0 0 0 0 0 0 0 0 0 0 0 0 0 0 0 0 0 0 0 0 0 0 0 0 0 0 0 0 0 0 0 0 0 0 0 0 0 0 0 0
0 0 0 0 0 0 0 0 0 0 0 0 0 0 0 0 0 0 0 0 0 0 0 0 0 0 0 0 0 0 0 0 0 0 0 0 0 0 0 0 0 0 0
0 0 0 0 0 0 0 0 0 0 0 0 0 0 0 0 0 0 0 0 0 0 0 0 0 0 0 0 0 0 0 0 0 0 0 0 0 0 0 0 0 0 0
0 0 0 0 0 0 0 0 0 0 0 0 0 0 0 0 0 0 0 0 0 0 0 0 0 0 0 0 0 0 0 0 0 0 0 0 0 0 0 0 0 0 0
0 0 0 0 0 0 0 0 0 0 0 0 0 0 0 0 0 0 0 0 0 0 0 0 0 0 0 0 0 0 0 0 0 0 0 0 0 0 0 0 0 0 0
0 0 0 0 0 0 0 0 0 0 0 0 0 0 0 0 0 0 0 0 0 0 0 0 0 0 0 0 0 0 0 0 0 0 0 0 0 0 0 0 0 0 0
0 0 0 0 0 0 0 0 0 0 0 0 0 0 0 0 0 0 0 0 0 0 0 0 0 0 0 0 0 0 0 0 0 0 0 0 0 0 0 0 0 0 0
0 0 0 0 0 0 0 0 0 0 0 0 0 0 0 0 0 0 0 0 0 0 0 0 0 0 0 0 0 0 0 0 0 0 0 0 0 0 0 0 0 0 0
0 0 0 0 0 0 0 0 0 0 0 0 0 0 0 0 0 0 0 0 0 0 0 0 0 0 0 0 0 0 0 0 0 0 0 0 0 0 0 0 0 0 0
0 0 0 0 0 0 0 0 0 0 0 0 0 0 0 0 0 0 0 0 0 0 0 0 0 0 0 0 0 0 0 0 0 0 0 0 0 0 0 0 0 0 0
0 0 0 0 0 0 0 0 0 0 0 0 0 0 0 0 0 0 0 0 0 0 0 0 0 0 0 0 0 0 0 0 0 0 0 0 0 0 0 0 0 0 0
0 0 0 0 0 0 0 0 0 0 0 0 0 0 0 0 0 0 0 0 0 0 0 0 0 0 0 0 0 0 0 0 0 0 0 0 0 0 0 0 0 0 0
0 0 0 0 0 0 0 0 0 0 0 0 0 0 0 0 0 0 0 0 0 0 0 0 0 0 0 0 0 0 0 0 0 0 0 0 0 0 0 0 0 0 0
0 0 0 0 0 0 0 0 0 0 0 0 0 0 0 0 0 0 0 0 0 0 0 0 0 0 0 0 0 0 0 0 0 0 0 0 0 0 0 0 0 0 0
0 0 0 0 0 0 0 0 0 0 0 0 0 0 0 0 0 0 0 0 0 0 0 0 0 0 0 0 0 0 0 0 0 0 0 0 0 0 0 0 0 0 0
0 0 0 0 0 0 0 0 0 0 0 0 0 0 0 0 0 0 0 0 0 0 0 0 0 0 0 0 0 0 0 0 0 0 0 0 0 0 0 0 0 0 0
0 0 0 0 0 0 0 0 0 0 0 0 0 0 0 0 0 0 0 0 0 0 0 0 0 0 0 0 0 0 0 0 0 0 0 0 0 0 0 0 0 0 0
0 0 0 0 0 0 0 0 0 0 0 0 0 0 0 0 0 0 0 0 0 0 0 0 0 0 0 0 0 0 0 0 0 0 0 0 0 0 0 0 0 0 0
0 0 0 0 0 0 0 0 0 0 0 0 0 0 0 0 0 0 0 0 0 0 0 0 0 0 0 0 0 0 0 0 0 0 0 0 0 0 0 0 0 0 0
0 0 0 0 0 0 0 0 0 0 0 0 0 0 0 0 0 0 0 0 0 0 0 0 0 0 0 0 0 0 0 0 0 0 0 0 0 0 0 0 0 0 0
Wind_Speed
11 11 10 10 10 9 8 8 7 6 6 4 4 2 2 2 1 2 2 3 3 3 4 4 4 4 4 3 4 4 4 3 3 2 2 2 3 2 3 2 3 4 5
10 10 10 10 10 10 10 10 9 8 7 7 5 5 4 3 2 1 1 2 2 3 3 3 3 3 3 3 3 4 3 4 3 3 2 2 2 2 2 2 2 2 2
10 10 10 11 11 10 10 10 9 9 8 7 7 7 6 5 4 3 2 2 1 1 2 3 3 3 2 2 4 3 3 3 2 2 2 2 2 2 2 2 3 2 2
10 10 10 10 10 10 10 10 10 9 9 8 8 7 7 6 6 4 3 2 2 2 3 3 3 3 2 2 2 3 3 3 3 3 3 3 2 2 2 2 3 3 2
9 10 10 10 10 10 10 10 10 9 9 8 8 8 8 6 7 6 3 3 3 4 3 3 4 4 4 2 1 2 3 3 3 3 3 3 3 2 2 2 3 3 4
9 9 9 9 10 10 10 10 10 10 9 9 9 9 9 7 9 9 5 4 4 4 4 4 4 4 5 5 5 4 2 2 3 3 3 3 4 3 2 2 3 3 3
9 9 9 9 10 10 10 10 10 9 10 10 10 9 9 10 10 9 8 4 5 5 5 4 4 4 3 5 7 7 6 6 3 2 4 4 4 3 3 3 2 3 3
9 9 9 9 9 9 9 9 9 8 8 8 9 9 9 11 12 10 6 5 6 6 6 5 5 4 4 3 5 6 7 7 5 4 5 5 3 2 2 3 4 5 5
8 8 8 8 9 9 9 9 8 8 8 8 8 9 9 11 13 11 7 5 6 7 7 7 6 6 6 2 5 8 8 8 9 11 11 9 9 7 3 2 3 3 3
7 7 7 7 8 8 8 8 7 7 7 7 8 9 10 10 13 13 9 5 6 6 6 7 9 7 5 4 4 6 7 7 7 8 8 7 7 7 3 2 1 1 3
5 5 6 6 7 7 7 7 7 7 7 7 8 8 9 10 11 13 12 5 5 5 5 5 6 8 8 7 5 6 6 5 6 6 6 6 5 5 5 5 5 3 2
3 4 5 6 6 5 6 6 7 7 7 7 7 8 7 8 10 11 12 11 7 6 5 5 6 9 10 9 7 8 6 3 5 5 5 5 5 5 5 6 7 7 6
2 3 3 4 5 5 6 6 6 6 6 6 6 6 6 6 7 9 10 10 9 6 6 9 8 7 7 8 9 5 3 3 4 4 5 4 4 4 4 4 6 7 8
1 2 2 2 3 4 4 5 5 6 6 6 6 6 5 6 7 6 5 5 5 5 6 7 7 7 6 6 5 4 4 4 3 4 4 4 4 3 3 3 3 4 5
1 1 1 2 2 2 3 4 5 5 6 5 5 5 6 6 8 9 7 5 4 4 2 3 4 4 5 5 5 5 4 4 4 4 4 4 4 3 3 3 3 3 4
1 1 1 1 1 0 1 2 3 2 4 4 6 6 5 6 6 7 8 7 6 4 1 4 4 4 4 4 4 4 4 4 3 3 3 3 3 3 3 3 3 4 4
2 2 2 1 1 1 0 1 1 3 4 2 3 5 5 5 5 5 5 5 5 3 3 4 4 4 4 4 3 3 3 3 3 3 3 3 3 3 3 3 3 4 4
3 3 2 2 2 1 1 1 1 1 1 2 4 3 3 3 4 3 2 2 3 3 3 3 3 3 3 3 3 3 3 3 2 3 3 3 2 3 3 3 3 3 3
4 3 3 3 3 2 2 2 1 1 1 1 1 4 3 3 3 1 2 1 3 3 3 2 2 2 2 2 2 2 2 2 2 2 3 2 2 2 3 3 3 3 1
3 3 3 4 4 3 3 3 2 2 2 1 1 1 1 2 1 1 1 1 1 2 2 2 1 1 1 1 1 1 1 2 2 2 2 2 2 2 3 3 2 3 2
4 4 6 5 4 4 4 4 3 3 2 2 1 1 1 2 1 0 0 1 0 1 1 1 1 1 1 1 1 1 1 1 2 1 2 2 2 2 2 2 2 2 2
4 4 5 5 4 4 4 5 4 4 4 4 3 3 5 4 2 2 2 2 2 2 2 2 2 2 1 1 1 1 1 1 2 2 2 2 2 2 2 2 2 2 2
5 5 5 5 5 4 5 6 5 5 5 5 4 4 5 5 4 3 3 3 3 3 3 3 3 3 3 2 2 2 2 2 1 1 2 2 2 2 2 2 3 3 2
5 6 5 5 5 5 6 6 6 6 6 6 5 5 5 5 5 5 5 4 4 4 4 4 4 4 5 4 3 3 3 1 2 2 3 2 2 2 3 3 3 3 3
6 6 6 5 5 5 6 6 6 6 6 6 6 6 6 6 6 5 5 5 6 6 6 6 5 5 7 7 6 4 3 2 2 3 3 3 4 4 4 4 4 4 4
6 7 6 6 6 6 6 6 6 6 6 6 6 6 6 6 6 6 6 6 7 7 7 7 8 8 8 7 7 6 7 6 5 5 5 4 5 4 5 4 5 5 5
Wind_Direction
8 9 12 14 14 16 18 17 17 20 19 25 35 51 71 86 126 163 181 183 197 195 195 200 202 197 191 194 200 206 211 212 217 189 163 172 185 183 172 203 195 188 161
8 11 15 16 20 20 21 21 23 27 29 32 37 48 56 59 63 91 125 161 176 177 180 187 190 180 182 186 193 198 196 201 203 189 157 160 160 149 157 159 162 151 140
11 15 18 20 21 20 21 23 26 28 31 36 39 39 41 44 45 52 73 94 105 143 158 159 160 155 166 179 193 190 185 185 186 169 142 127 134 137 150 137 132 125 124
16 18 20 19 17 18 22 26 28 30 33 33 36 37 36 38 39 38 51 72 87 97 108 124 134 135 140 154 170 169 162 158 156 154 146 143 132 130 159 147 139 122 111
21 23 21 20 21 21 25 28 32 31 31 35 38 40 38 35 31 22 38 69 82 84 90 98 90 85 70 81 111 142 157 157 153 147 142 141 135 142 134 139 127 125 97
26 25 21 22 24 24 26 30 32 32 32 35 38 39 37 35 29 28 21 66 75 76 72 77 96 105 104 102 86 75 58 122 137 142 140 134 123 117 115 132 142 157 120
30 29 23 24 26 25 29 32 30 31 32 33 35 35 39 37 33 40 37 61 69 70 69 71 73 79 91 108 118 127 95 65 43 101 116 107 112 121 139 133 120 96 85
30 29 27 24 27 28 29 29 29 32 33 35 34 33 39 38 35 35 29 73 75 72 69 68 73 77 65 82 115 107 94 79 64 78 87 81 79 95 112 115 116 114 110
32 28 26 25 27 28 29 26 25 30 33 36 39 37 39 39 32 27 20 76 78 74 68 61 61 74 55 25 114 112 105 93 72 69 69 77 67 49 31 137 150 153 132
32 30 30 28 28 29 29 25 27 32 35 39 43 41 40 38 32 26 14 69 80 79 74 69 58 61 57 2 115 113 111 110 115 114 107 113 101 87 32 63 77 126 132
36 37 36 33 35 30 30 28 30 36 39 43 48 47 46 41 38 33 22 43 66 75 70 64 60 60 55 35 41 84 91 108 111 105 99 92 85 79 69 59 48 30 61
54 50 44 37 33 31 35 33 34 36 41 43 44 47 44 46 41 40 41 39 34 70 64 63 69 68 65 54 62 79 88 104 112 111 103 93 84 78 73 72 69 63 57
89 73 57 54 48 35 32 35 36 37 37 36 38 39 39 38 48 53 56 55 44 60 67 67 71 73 87 80 73 77 108 109 108 106 99 88 81 83 88 89 87 82 74
124 91 82 61 57 51 32 28 30 28 30 32 31 31 34 39 29 23 38 69 86 86 91 99 96 77 81 89 99 87 76 70 85 98 101 104 103 100 97 100 106 109 91
172 148 118 86 55 41 46 28 21 39 25 11 20 21 22 31 23 10 12 32 36 49 61 90 84 83 79 79 79 75 80 93 90 96 107 110 109 104 95 86 84 92 98
200 179 171 158 130 43 47 99 98 53 56 36 20 7 50 46 25 32 42 43 35 0 36 83 75 70 68 69 76 82 78 77 82 91 98 103 106 106 104 98 98 102 106
222 206 203 208 193 208 311 354 81 149 162 111 55 37 36 42 44 46 50 52 35 356 74 78 74 72 71 72 73 78 78 75 75 91 98 101 105 105 104 104 109 113 109
220 202 216 209 218 228 245 284 325 356 52 118 125 101 73 64 55 36 330 265 87 69 68 73 76 74 72 72 75 79 85 88 88 92 97 100 107 112 111 109 105 109 119
215 208 209 215 218 226 229 239 250 272 323 6 95 134 147 161 145 53 309 35 69 77 79 77 73 73 75 76 74 75 87 95 98 101 100 104 114 123 124 123 113 102 115
215 198 227 224 220 222 224 232 238 247 263 291 331 30 150 206 207 117 101 63 80 94 95 100 94 77 81 84 88 96 111 115 116 110 104 109 115 127 131 138 140 146 134
221 194 201 228 231 232 235 237 239 245 254 261 264 95 299 272 301 283 187 166 166 150 150 153 149 161 152 151 160 156 160 135 131 125 126 127 127 130 138 143 142 139 133
233 225 216 224 228 231 237 239 241 243 244 245 239 185 188 237 245 235 218 206 201 199 196 203 201 186 195 209 218 205 194 178 163 164 158 146 148 157 165 165 159 157 160
235 233 230 230 234 226 233 239 238 239 241 239 236 228 209 224 229 229 222 212 206 205 202 208 213 199 196 205 215 230 222 195 188 206 202 186 188 186 192 182 178 186 186
232 236 238 236 237 240 240 240 238 238 241 242 237 232 229 226 227 223 218 207 203 204 204 208 216 212 203 203 208 213 222 212 214 208 224 227 215 205 201 198 203 202 193
228 235 238 240 240 241 244 244 242 240 238 239 239 235 231 229 226 221 214 206 205 205 205 207 208 212 212 207 210 207 146 136 272 277 221 225 224 220 223 217 213 208 208
225 234 238 240 242 243 246 248 246 245 242 240 239 238 236 233 230 223 214 207 205 205 205 206 210 209 210 213 210 187 166 190 213 249 261 237 226 223 221 220 216 215 210